カタログに戻る

STARLINK-34536

運用中通信VLEO
NORAD 64748·PAYLOAD·🇺🇸 United States

打ち上げ Jul 2, 2025 から Cape Canaveral Space Force Station

Loading…

次のパス (今後24時間)

TLE

最新Source: CelesTrak SupGP

元期: Sep 15, 2026, 02:53 UTC

1 64748C 25144AA  26258.12062500  .00033490  00000+0  98957-3 0  2581
2 64748  53.1612  20.6566 0001006  81.5543 201.9752 15.34370959    10

AllMySatでSTARLINK-34536をリアルタイム追跡

Download on the App Store